Thomasville, PA

6:09 AM EDT on September 27, 2016 (GMT -0400)
York

Weather History for KTHV - November, 2012

Change the Weather History Date:

Saturday, November 17, 2012

  Actual Average Record
Temperature  
Mean Temperature 40 °F -  
Max Temperature 54 °F 53 °F 62 °F (2010)
Min Temperature 25 °F 41 °F 19 °F (1997)
Degree Days  
Heating Degree Days 26    
Moisture  
Dew Point 26 °F    
Average Humidity 71    
Maximum Humidity 89    
Minimum Humidity 34    
Precipitation  
Precipitation 0.00 in - - ()
Sea Level Pressure  
Sea Level Pressure 30.58 in    
Wind  
Wind Speed 1 mph (NE)    
Max Wind Speed 8 mph    
Max Gust Speed -    
Visibility 10 miles    
Events      
Averages and records for this station are not official NWS values.
T = Trace of Precipitation, MM = Missing Value Source: NWS Daily Summary

Daily Weather History Graph

Daily Weather History Graph

Search for Another Location

Airport or City:

Trip Planner

Search our weather history database for the weather conditions in past years. The results will help you decide how hot, cold, wet, or windy it might be!

Date:

Astronomy

Nov. 17, 2012 Rise Set
Actual Time 6:55 AM EST 4:49 PM EST
Civil Twilight 6:26 AM EST 5:18 PM EST
Nautical Twilight 5:53 AM EST 5:51 PM EST
Astronomical Twilight 5:21 AM EST 6:23 PM EST
Moon 10:38 AM EST (11/17) 8:56 PM EST (11/17)
Length of Visible Light 10h 52m
Length of Day
9h 54m
Waxing Crescent, 20% of the Moon is Illuminated
Nov 17
Waxing Crescent
Nov 20
First Quarter
Nov 28
Full
Dec 6
Last Quarter
Dec 13
New

Hourly Weather History & Observations

Time (EST) Temp. Windchill Dew Point Humidity Pressure Visibility Wind Dir Wind Speed Gust Speed Precip Events Conditions
12:53 AM 27.0 °F - 24.1 °F 89% 30.48 in 10.0 mi Calm Calm - N/A   Clear
1:53 AM 26.1 °F - 23.0 °F 88% 30.50 in 10.0 mi Calm Calm - N/A   Clear
2:53 AM 26.1 °F - 23.0 °F 88% 30.51 in 10.0 mi Calm Calm - N/A   Clear
3:53 AM 26.1 °F - 21.9 °F 84% 30.51 in 10.0 mi Calm Calm - N/A   Clear
4:53 AM 25.0 °F - 21.9 °F 88% 30.54 in 10.0 mi Calm Calm - N/A   Clear
5:53 AM 25.0 °F - 21.0 °F 85% 30.55 in 10.0 mi Calm Calm - N/A   Clear
6:53 AM 25.0 °F - 21.9 °F 88% 30.58 in 9.0 mi Calm Calm - N/A   Clear
7:53 AM 28.0 °F - 25.0 °F 88% 30.61 in 10.0 mi Calm Calm - N/A   Clear
8:53 AM 39.0 °F - 30.0 °F 70% 30.62 in 10.0 mi Calm Calm - N/A   Clear
9:53 AM 45.0 °F 42.6 °F 30.0 °F 56% 30.63 in 10.0 mi Variable 4.6 mph - N/A   Clear
10:53 AM 48.0 °F - 28.0 °F 46% 30.62 in 10.0 mi NE 4.6 mph - N/A   Clear
11:53 AM 50.0 °F - 28.0 °F 43% 30.61 in 10.0 mi ENE 8.1 mph - N/A   Clear
12:53 PM 51.1 °F - 28.0 °F 41% 30.59 in 10.0 mi ENE 5.8 mph - N/A   Clear
1:53 PM 53.1 °F - 26.1 °F 35% 30.58 in 10.0 mi Calm Calm - N/A   Clear
2:53 PM 54.0 °F - 26.1 °F 34% 30.57 in 10.0 mi NNE 8.1 mph - N/A   Clear
3:53 PM 52.0 °F - 28.0 °F 40% 30.58 in 10.0 mi NE 5.8 mph - N/A   Clear
4:53 PM 43.0 °F - 28.9 °F 58% 30.60 in 10.0 mi Calm Calm - N/A   Clear
5:53 PM 36.0 °F - 28.9 °F 76% 30.61 in 10.0 mi Calm Calm - N/A   Clear
6:53 PM 33.1 °F - 28.0 °F 82% 30.61 in 10.0 mi Calm Calm - N/A   Clear
7:53 PM 32.0 °F - 27.0 °F 82% 30.60 in 10.0 mi Calm Calm - N/A   Clear
8:53 PM 30.0 °F - 26.1 °F 85% 30.62 in 10.0 mi Calm Calm - N/A   Clear
9:53 PM 28.9 °F - 25.0 °F 85% 30.62 in 10.0 mi Calm Calm - N/A   Clear
10:53 PM 28.9 °F - 25.0 °F 85% 30.62 in 10.0 mi Calm Calm - N/A   Clear
11:53 PM 28.0 °F - 25.0 °F 88% 30.63 in 9.0 mi Calm Calm - N/A   Clear